HST
1 20580U 90037B   24114.06837702  .00011238  00000-0  54512-3 0  9994
2 20580  28.4695 354.2046 0002572 148.5922 211.4824 15.16900415668916
ISS (ZARYA)
1 25544U 98067A   24114.44271735  .00035842  00000-0  61699-3 0  9991
2 25544  51.6401 226.8529 0004790  92.7052 352.9838 15.50723751450056
CXO
1 25867U 99040B   24114.98765664  .00000954  00000-0  00000-0 0  9991
2 25867  39.9917 159.0971 8937982 292.6126   1.5471  0.37815853 14355